Location: *
(44.3925°N, 5.4708°E)
Time: 01:42:32
(UTC+00:00)

Cosmos 405 Rocket - Pass Details

Date: 18 September 2019
Orbit: 491 x 554 km, 81.3° (Epoch: 17 October)

Event Time Altitude Azimuth Distance (km) Brightness Sun altitude
Exits shadow 19:26:22 46° 151° (SSE) 672 2.9 -18.6°
Maximum altitude 19:27:12 61° 97° (E) 565 2.5 -18.8°
Drops below altitude 10° 19:30:52 10° 17° (NNE) 1,699 5.4 -19.4°
Sets 19:33:01 0° 14° (NNE) 2,592 6.4 -19.7°
